This is the latest recevied weather packets stored in our database for station/object N3WXO-1. If no packets are shown the sender has not sent any weather packets the latest 10 day(s).
| Time | Temp. | Humidity | Pressure | Rain* | Wind** | Luminosity | Snow |
|---|---|---|---|---|---|---|---|
| 1777743623 | 13.89° C | 43% | 1012.6 hPa | 0 mm | - | 218 W/m² | - |
| 1777743318 | 13.89° C | 45% | 1012.5 hPa | 0 mm | - | 1035 W/m² | - |
| 1777743035 | 13.33° C | 47% | 1012.7 hPa | 0 mm | - | 1051 W/m² | - |
| 1777742733 | 13.33° C | 46% | 1012.6 hPa | 0 mm | - | 316 W/m² | - |
| 1777742431 | 13.33° C | 46% | 1012.7 hPa | 0 mm | - | 220 W/m² | - |
| 1777742127 | 13.89° C | 45% | 1012.6 hPa | 0 mm | - | 171 W/m² | - |
| 1777741825 | 13.89° C | 46% | 1012.5 hPa | 0 mm | - | 995 W/m² | - |
| 1777741520 | 13.89° C | 48% | 1012.9 hPa | 0 mm | - | 1005 W/m² | - |
| 1777741236 | 13.89° C | 45% | 1012.9 hPa | 0 mm | - | 984 W/m² | - |
| 1777740931 | 13.89° C | 50% | 1012.9 hPa | 0 mm | - | 1013 W/m² | - |
| 1777740627 | 13.89° C | 47% | 1013 hPa | 0 mm | - | 976 W/m² | - |
| 1777740327 | 13.89° C | 50% | 1012.9 hPa | 0 mm | - | 969 W/m² | - |
| 1777740022 | 13.89° C | 47% | 1013.2 hPa | 0 mm | - | 947 W/m² | - |
| 1777739718 | 13.89° C | 51% | 1013.4 hPa | 0 mm | - | 914 W/m² | - |
| 1777739433 | 13.33° C | 50% | 1013.3 hPa | 0 mm | - | 926 W/m² | - |
| 1777739129 | 13.33° C | 48% | 1013.2 hPa | 0 mm | - | 911 W/m² | - |
| 1777738824 | 13.33° C | 51% | 1013.3 hPa | 0 mm | - | 933 W/m² | - |
| 1777738519 | 13.33° C | 50% | 1013.4 hPa | 0 mm | - | 754 W/m² | - |
| 1777738218 | 12.78° C | 50% | 1013.3 hPa | 0 mm | - | 719 W/m² | - |
| 1777737934 | 12.78° C | 49% | 1013.4 hPa | 0 mm | - | 693 W/m² | - |
| 1777737631 | 12.78° C | 54% | 1013.4 hPa | 0 mm | - | 895 W/m² | - |
| 1777737325 | 12.78° C | 53% | 1013.5 hPa | 0 mm | - | 851 W/m² | - |
| 1777737020 | 12.22° C | 55% | 1013.5 hPa | 0 mm | - | 881 W/m² | - |
| 1777736717 | 12.22° C | 52% | 1013.6 hPa | 0 mm | - | 854 W/m² | - |
| 1777736432 | 12.22° C | 59% | 1013.6 hPa | 0 mm | - | 858 W/m² | - |
* Rain latest hour (hover to see other rain measurements)
** Current wind speed in m/s (hover to see current wind gust speed)